Ely, MN

8:55 PM CST on February 24, 2017 (GMT -0600)
Ely Municipal

Weather History for KELO - February, 2014

Change the Weather History Date:

Tuesday, February 25, 2014

  Actual Average Record
Temperature  
Mean Temperature -8 °F -  
Max Temperature 1 °F 25 °F 42 °F (1998)
Min Temperature -18 °F 5 °F -29 °F (2003)
Degree Days  
Heating Degree Days 74    
Moisture  
Dew Point -16 °F    
Average Humidity 67    
Maximum Humidity 84    
Minimum Humidity 47    
Precipitation  
Precipitation 0.00 in - - ()
Sea Level Pressure  
Sea Level Pressure 30.07 in    
Wind  
Wind Speed 8 mph (West)    
Max Wind Speed 17 mph    
Max Gust Speed 26 mph    
Visibility 9 miles    
Events Snow    
Averages and records for this station are not official NWS values.
T = Trace of Precipitation, MM = Missing Value Source: NWS Daily Summary

Daily Weather History Graph

Daily Weather History Graph

Search for Another Location

Airport or City:

Trip Planner

Search our weather history database for the weather conditions in past years. The results will help you decide how hot, cold, wet, or windy it might be!

Date:

Astronomy

Feb. 25, 2014 Rise Set
Actual Time 6:55 AM CST 5:45 PM CST
Civil Twilight 6:24 AM CST 6:17 PM CST
Nautical Twilight 5:48 AM CST 6:53 PM CST
Astronomical Twilight 5:12 AM CST 7:28 PM CST
Moon 4:03 AM CST 1:40 PM CST
Length of Visible Light 11h 52m
Length of Day
10h 50m
Waning Crescent, 18% of the Moon is Illuminated
Feb 25
Waning Crescent
Mar 1
New
Mar 8
First Quarter
Mar 16
Full
Mar 23
Last Quarter

Hourly Weather History & Observations

Time (CST) Temp. Windchill Dew Point Humidity Pressure Visibility Wind Dir Wind Speed Gust Speed Precip Events Conditions
12:13 AM -7.6 °F -24.6 °F -11.2 °F 84% 30.11 in 10.0 mi West 9.2 mph - N/A   Clear
12:33 AM -7.6 °F -24.6 °F -13.0 °F 77% 30.11 in 10.0 mi West 9.2 mph - N/A   Clear
12:52 AM -7.6 °F -20.6 °F -13.0 °F 77% 30.10 in 10.0 mi West 5.8 mph - N/A   Clear
1:13 AM -9.4 °F -22.7 °F -14.8 °F 77% 30.10 in 10.0 mi West 5.8 mph - N/A   Clear
1:33 AM -9.4 °F -22.7 °F -14.8 °F 77% 30.10 in 10.0 mi West 5.8 mph - N/A   Clear
1:52 AM -9.4 °F -25.6 °F -14.8 °F 77% 30.10 in 7.0 mi West 8.1 mph - N/A   Scattered Clouds
2:13 AM -11.2 °F -26.4 °F -16.6 °F 77% 30.10 in 10.0 mi West 6.9 mph - N/A   Clear
2:33 AM -11.2 °F -27.8 °F -16.6 °F 77% 30.10 in 10.0 mi West 8.1 mph - N/A   Clear
2:52 AM -11.2 °F -27.8 °F -16.6 °F 77% 30.10 in 10.0 mi West 8.1 mph - N/A   Mostly Cloudy
3:13 AM -11.2 °F -23.0 °F -16.6 °F 77% 30.09 in 4.0 mi West 4.6 mph - N/A Snow Light Snow
3:33 AM -13.0 °F -27.0 °F -18.4 °F 77% 30.09 in 10.0 mi West 5.8 mph - N/A   Scattered Clouds
3:52 AM -14.8 °F -30.8 °F -18.4 °F 84% 30.09 in 10.0 mi West 6.9 mph - N/A   Clear
4:13 AM -14.8 °F -24.8 °F -18.4 °F 84% 30.08 in 10.0 mi West 3.5 mph - N/A   Clear
4:32 AM -14.8 °F -27.2 °F -18.4 °F 84% 30.08 in 10.0 mi West 4.6 mph - N/A   Clear
4:53 AM -14.8 °F -29.1 °F -20.2 °F 77% 30.07 in 10.0 mi WSW 5.8 mph - N/A   Clear
5:13 AM -16.6 °F -29.3 °F -20.2 °F 84% 30.07 in 10.0 mi West 4.6 mph - N/A   Clear
5:32 AM -16.6 °F -31.3 °F -20.2 °F 84% 30.07 in 10.0 mi West 5.8 mph - N/A   Clear
5:53 AM -16.6 °F -31.3 °F -20.2 °F 84% 30.07 in 10.0 mi West 5.8 mph - N/A   Clear
6:13 AM -16.6 °F -31.3 °F -22.0 °F 76% 30.08 in 10.0 mi West 5.8 mph - N/A   Clear
6:32 AM -16.6 °F -31.3 °F -22.0 °F 76% 30.07 in 10.0 mi West 5.8 mph - N/A   Clear
6:53 AM -16.6 °F -31.3 °F -22.0 °F 76% 30.07 in 10.0 mi West 5.8 mph - N/A   Clear
7:13 AM -18.4 °F -31.4 °F -22.0 °F 84% 30.07 in 10.0 mi WSW 4.6 mph - N/A   Clear
7:32 AM -16.6 °F -26.8 °F -20.2 °F 84% 30.07 in 10.0 mi WSW 3.5 mph - N/A   Scattered Clouds
7:53 AM -16.6 °F -34.4 °F -20.2 °F 84% 30.08 in 10.0 mi West 8.1 mph - N/A   Scattered Clouds
8:13 AM -14.8 °F -29.1 °F -18.4 °F 84% 30.07 in 10.0 mi West 5.8 mph - N/A   Clear
8:33 AM -13.0 °F -27.0 °F -18.4 °F 77% 30.08 in 10.0 mi West 5.8 mph - N/A   Clear
8:53 AM -11.2 °F -24.8 °F -16.6 °F 77% 30.07 in 10.0 mi West 5.8 mph - N/A   Clear
9:12 AM -9.4 °F -25.6 °F -16.6 °F 71% 30.07 in 10.0 mi WNW 8.1 mph - N/A   Clear
9:33 AM -7.6 °F -20.6 °F -14.8 °F 71% 30.07 in 10.0 mi West 5.8 mph - N/A   Clear
9:53 AM -5.8 °F -19.9 °F -14.8 °F 65% 30.07 in 10.0 mi West 6.9 mph - N/A   Clear
10:12 AM -5.8 °F -21.2 °F -14.8 °F 65% 30.07 in 10.0 mi WSW 8.1 mph - N/A   Clear
10:33 AM -4.0 °F -17.8 °F -13.0 °F 65% 30.07 in 10.0 mi West 6.9 mph - N/A   Clear
10:53 AM -2.2 °F -19.9 °F -13.0 °F 60% 30.07 in 10.0 mi West 11.5 mph 17.3 mph N/A   Clear
11:12 AM -2.2 °F -21.5 °F -13.0 °F 60% 30.06 in 7.0 mi West 13.8 mph 18.4 mph N/A   Clear
11:33 AM -0.4 °F -19.2 °F -11.2 °F 60% 30.06 in 7.0 mi West 13.8 mph 18.4 mph N/A   Clear
11:53 AM -0.4 °F -16.7 °F -9.4 °F 66% 30.06 in 2.5 mi West 10.4 mph - N/A   Haze
12:12 PM -0.4 °F -17.6 °F -9.4 °F 66% 30.05 in 3.0 mi WNW 11.5 mph 21.9 mph N/A   Haze
12:33 PM 1.4 °F -15.3 °F -11.2 °F 56% 30.05 in 4.0 mi WNW 11.5 mph 24.2 mph N/A   Haze
12:53 PM -0.4 °F -19.2 °F -11.2 °F 60% 30.05 in 4.0 mi NW 13.8 mph 21.9 mph N/A   Haze
1:13 PM -0.4 °F -18.4 °F -11.2 °F 60% 30.05 in 3.0 mi NW 12.7 mph 21.9 mph N/A   Haze
1:33 PM -0.4 °F -14.7 °F -11.2 °F 60% 30.05 in 7.0 mi NW 8.1 mph 21.9 mph N/A   Scattered Clouds
1:52 PM -0.4 °F -18.4 °F -11.2 °F 60% 30.05 in 7.0 mi WNW 12.7 mph 23.0 mph N/A   Scattered Clouds
2:13 PM 1.4 °F -18.8 °F -13.0 °F 51% 30.04 in 10.0 mi NW 17.3 mph 26.5 mph N/A   Scattered Clouds
2:33 PM 1.4 °F -18.8 °F -14.8 °F 47% 30.04 in 10.0 mi WNW 17.3 mph 26.5 mph N/A   Scattered Clouds
2:52 PM 1.4 °F -16.9 °F -13.0 °F 51% 30.04 in 10.0 mi WNW 13.8 mph 23.0 mph N/A   Clear
3:13 PM -0.4 °F -16.7 °F -9.4 °F 66% 30.05 in 4.0 mi NW 10.4 mph 18.4 mph N/A   Haze
3:33 PM -0.4 °F -18.4 °F -9.4 °F 66% 30.05 in 10.0 mi NW 12.7 mph 18.4 mph N/A   Clear
3:52 PM 1.4 °F -14.5 °F -13.0 °F 51% 30.05 in 10.0 mi WNW 10.4 mph 25.3 mph N/A   Scattered Clouds
4:13 PM -0.4 °F -19.9 °F -14.8 °F 51% 30.05 in 10.0 mi WNW 15.0 mph 25.3 mph N/A   Scattered Clouds
4:33 PM -0.4 °F -21.2 °F -14.8 °F 51% 30.05 in 10.0 mi WNW 17.3 mph 24.2 mph N/A   Clear
4:52 PM -2.2 °F -19.9 °F -14.8 °F 55% 30.06 in 10.0 mi WNW 11.5 mph 16.1 mph N/A   Clear
5:13 PM -2.2 °F -20.7 °F -16.6 °F 50% 30.06 in 10.0 mi WNW 12.7 mph 20.7 mph N/A   Clear
5:33 PM -2.2 °F -21.5 °F -16.6 °F 50% 30.07 in 10.0 mi WNW 13.8 mph 20.7 mph N/A   Clear
5:52 PM -2.2 °F -19.9 °F -16.6 °F 50% 30.08 in 10.0 mi WNW 11.5 mph 18.4 mph N/A   Clear
6:13 PM -4.0 °F -25.2 °F -16.6 °F 55% 30.08 in 10.0 mi NW 16.1 mph 21.9 mph N/A   Clear
6:33 PM -5.8 °F -25.2 °F -16.6 °F 60% 30.09 in 10.0 mi WNW 12.7 mph 18.4 mph N/A   Clear
6:52 PM -5.8 °F -23.4 °F -18.4 °F 55% 30.09 in 10.0 mi WNW 10.4 mph - N/A   Clear
7:13 PM -5.8 °F -21.2 °F -16.6 °F 60% 30.10 in 10.0 mi WNW 8.1 mph - N/A   Clear
7:33 PM -7.6 °F -23.4 °F -16.6 °F 65% 30.09 in 10.0 mi WNW 8.1 mph - N/A   Clear
7:52 PM -7.6 °F -23.4 °F -16.6 °F 65% 30.09 in 10.0 mi WNW 8.1 mph - N/A   Clear
8:13 PM -7.6 °F -23.4 °F -18.4 °F 59% 30.09 in 10.0 mi West 8.1 mph - N/A   Clear
8:33 PM -9.4 °F -22.7 °F -18.4 °F 65% 30.08 in 10.0 mi West 5.8 mph - N/A   Clear
8:53 PM -9.4 °F -25.6 °F -18.4 °F 65% 30.08 in 10.0 mi West 8.1 mph - N/A   Clear
9:13 PM -9.4 °F -27.9 °F -18.4 °F 65% 30.09 in 10.0 mi West 10.4 mph - N/A   Clear
9:32 PM -9.4 °F -26.8 °F -18.4 °F 65% 30.08 in 10.0 mi West 9.2 mph - N/A   Clear
9:53 PM -9.4 °F -26.8 °F -20.2 °F 59% 30.08 in 10.0 mi West 9.2 mph 16.1 mph N/A   Clear
10:12 PM -9.4 °F -26.8 °F -20.2 °F 59% 30.08 in 10.0 mi West 9.2 mph 17.3 mph N/A   Clear
10:32 PM -11.2 °F -27.8 °F -20.2 °F 64% 30.08 in 10.0 mi West 8.1 mph - N/A   Clear
10:53 PM -11.2 °F -26.4 °F -20.2 °F 64% 30.07 in 10.0 mi West 6.9 mph - N/A   Clear
11:13 PM -11.2 °F -26.4 °F -20.2 °F 64% 30.06 in 10.0 mi West 6.9 mph 16.1 mph N/A   Clear
11:33 PM -11.2 °F -26.4 °F -20.2 °F 64% 30.05 in 10.0 mi WSW 6.9 mph - N/A   Clear
11:52 PM -11.2 °F -26.4 °F -20.2 °F 64% 30.05 in 10.0 mi West 6.9 mph - N/A   Clear